[[{"header":{"parameterUnit":"m.s-1","parameterCategory":1,"la1":30.2992,"la2":30.254,"lo1":-89.0895,"lo2":-89.0443,"dy":0.0025,"dx":0.0025,"nx":19,"ny":19,"refTime":"2026-03-27T03:00:00:Z","depth":0,"parameterNumber":2,"parameterNumberName":"U-component_of_WINDS"},"data":[0,0,0,2.6787,2.6786,2.6726,2.6726,2.6685,2.6685,0,0,0,0,0,0,0,0,0,0,0,2.6824,2.6824,2.6787,2.6786,2.6726,2.6726,2.6685,2.6685,0,0,0,0,0,0,0,0,0,0,0,2.6824,2.6824,2.6825,2.6786,2.6727,2.6726,2.6685,2.6718,0,0,0,0,0,0,0,0,0,0,2.677,2.6822,2.6824,2.6825,2.6786,2.6727,2.6726,2.6719,2.6716,2.6726,0,2.6739,0,2.6712,2.6684,2.6684,0,0,0,2.6772,2.6825,2.6791,2.6825,2.6785,2.6727,2.6749,2.6717,2.6713,2.6722,2.6738,2.6736,2.6711,2.6684,2.6684,2.6791,2.6793,0,0,2.6775,2.6824,2.6794,2.679,2.68,2.6751,2.6748,2.6714,2.6735,2.6738,2.6734,2.671,2.6684,2.6684,2.679,2.6792,0,0,0,2.6794,2.6827,2.6793,2.6793,2.6779,2.675,2.6746,2.6736,2.6721,2.6734,2.671,2.6684,2.6684,2.6789,2.6791,2.6896,0,0,0,2.6795,2.6837,2.6795,2.6824,2.6781,2.6757,2.677,2.6724,2.6718,2.671,2.6684,2.6683,2.6787,2.679,2.689,2.6938,0,0,0,2.6821,2.684,2.6838,2.6827,2.6803,2.6756,2.6739,2.6721,2.6705,2.6684,2.6683,2.6786,2.6789,2.6885,2.6929,2.6981,0,0,0,2.6863,2.6931,2.6841,2.6909,2.6804,2.6822,2.6738,2.6749,2.6744,2.6684,2.6788,2.679,2.6883,2.6924,2.6976,2.7034,2.7063,0,0,2.6976,2.6947,2.6983,2.69,2.6947,2.6827,2.6889,2.6838,2.6792,2.6795,2.6797,2.6892,2.6928,2.698,2.7206,2.7229,0,0,0,2.7036,2.7063,2.7064,2.7062,2.7026,2.6999,2.6934,2.6916,2.6916,2.6803,2.6924,2.6944,2.6972,2.6998,2.7017,2.704,2.6804,2.6804,2.6804,2.7265,2.7204,2.7261,2.7194,2.7193,2.7127,2.7121,2.7086,2.7022,2.7053,2.7053,2.7197,2.7229,2.7243,2.7267,2.7078,2.7079,2.7079,2.7079,2.7427,2.7456,2.7374,2.7399,2.7336,2.7357,2.7298,2.7253,2.7265,2.7191,2.7213,2.7138,2.7271,2.7289,2.7087,2.7085,2.7084,2.7084,2.7083,2.7571,2.7574,2.7552,2.7545,2.7547,2.7477,2.7493,2.7434,2.7378,2.74,2.7395,2.7393,2.7385,2.7402,2.7403,2.7403,2.7403,2.7404,2.7404,2.7728,2.77,2.772,2.7691,2.7684,2.7667,2.7605,2.7596,2.7572,2.7528,2.7527,2.7463,2.7295,2.7255,2.7412,2.741,2.7409,2.7409,2.7408,2.7915,2.7864,2.7896,2.7889,2.7852,2.786,2.7785,2.7774,2.7759,2.777,2.7702,2.7587,2.7552,2.7536,2.7502,2.7714,2.7714,2.7714,2.7714,2.8037,2.8014,2.8035,2.8028,2.8015,2.7952,2.7994,2.7948,2.7893,2.788,2.7841,2.7791,2.7778,2.7751,2.773,2.7697,2.7954,2.7954,2.7954,2.8149,2.8123,2.8168,2.8113,2.8081,2.8055,2.8093,2.8091,2.8017,2.7963,2.787,2.786,2.7778,2.7754,2.7697,2.7666,2.7604,0,0]},{"header":{"parameterUnit":"m.s-1","parameterCategory":1,"la1":30.2992,"la2":30.254,"lo1":-89.0895,"lo2":-89.0443,"dy":0.0025,"dx":0.0025,"nx":19,"ny":19,"refTime":"2026-03-27T03:00:00:Z","depth":0,"parameterNumber":3,"parameterNumberName":"V-component_of_WINDS"},"data":[0,0,0,2.2065,2.2073,2.2465,2.2466,2.2947,2.2951,0,0,0,0,0,0,0,0,0,0,0,2.1938,2.194,2.2064,2.2074,2.2465,2.2466,2.2946,2.2951,0,0,0,0,0,0,0,0,0,0,0,2.1936,2.194,2.1943,2.2075,2.2464,2.2467,2.2945,2.2657,0,0,0,0,0,0,0,0,0,0,2.228,2.2152,2.1939,2.1943,2.2077,2.2464,2.2467,2.2643,2.2675,2.276,0,2.2835,0,2.29,2.2982,2.2983,0,0,0,2.2083,2.2126,2.2241,2.1944,2.2081,2.2463,2.2291,2.2661,2.2697,2.2802,2.2842,2.286,2.2908,2.2984,2.2987,2.3449,2.3451,0,0,2.2061,2.2003,2.2216,2.2263,2.2202,2.2278,2.2303,2.2683,2.2722,2.2843,2.2872,2.2916,2.2988,2.2991,2.3447,2.3449,0,0,0,2.1993,2.1987,2.2094,2.2243,2.2315,2.2289,2.2318,2.2706,2.2745,2.2877,2.2921,2.299,2.2996,2.3446,2.3448,2.3476,0,0,0,2.198,2.1947,2.2084,2.2052,2.2307,2.2516,2.2331,2.2718,2.2763,2.2919,2.299,2.3,2.3444,2.3447,2.3472,2.35,0,0,0,2.1916,2.194,2.1993,2.2048,2.2214,2.2511,2.2572,2.273,2.279,2.2984,2.3002,2.3443,2.3446,2.3467,2.3494,2.3603,0,0,0,2.1831,2.2016,2.1992,2.2215,2.221,2.2524,2.2571,2.2808,2.2978,2.2993,2.3444,2.3448,2.3466,2.349,2.3598,2.3684,2.3715,0,0,2.2032,2.2038,2.2173,2.2163,2.2466,2.2469,2.2777,2.2989,2.3061,2.3315,2.3327,2.3473,2.3493,2.3602,2.3905,2.3928,0,0,0,2.2217,2.2313,2.2406,2.2563,2.2726,2.2867,2.3037,2.3114,2.3331,2.318,2.3544,2.3558,2.3624,2.3668,2.3688,2.3747,2.3466,2.3465,2.3465,2.242,2.2499,2.2726,2.285,2.3001,2.317,2.3299,2.3431,2.3471,2.3554,2.3631,2.3805,2.3854,2.387,2.3931,2.3683,2.3683,2.3683,2.3683,2.272,2.2868,2.2908,2.3144,2.3224,2.3423,2.3589,2.3609,2.3804,2.3756,2.3818,2.3759,2.3894,2.395,2.3686,2.3685,2.3685,2.3685,2.3685,2.2863,2.2947,2.3034,2.3264,2.3431,2.3549,2.3732,2.38,2.3866,2.3927,2.4013,2.4012,2.402,2.3962,2.3963,2.3963,2.3964,2.3964,2.3965,2.2976,2.3074,2.322,2.3402,2.3507,2.3655,2.382,2.3926,2.406,2.4095,2.4096,2.4124,2.3892,2.3831,2.3975,2.3973,2.3972,2.3971,2.397,2.3253,2.3199,2.3425,2.353,2.3746,2.3904,2.3986,2.4193,2.429,2.4377,2.439,2.4207,2.4219,2.4204,2.4155,2.4373,2.4373,2.4373,2.4373,2.3373,2.3384,2.3626,2.3788,2.3955,2.4049,2.4297,2.4424,2.4547,2.4611,2.4588,2.4528,2.4509,2.4533,2.451,2.4466,2.4758,2.4759,2.4759,2.3547,2.3575,2.3775,2.3893,2.4065,2.4209,2.4443,2.4626,2.4755,2.4776,2.4661,2.4645,2.4549,2.4514,2.4536,2.4499,2.4419,0,0]}]]